Вернуться в каталог

CZ-2C DEB

АктивенPO
NORAD 37734·DEBRIS·🇨🇳 China

Запущен Jul 6, 2011 с Jiuquan Satellite Launch Center

Loading…

Ближайшие Пролёты (ближайшие 24 часа)

TLE

СвежийSource: Space-Track

Эпоха: Sep 14, 2026, 14:08 UTC

1 37734U 11030E   26257.58916070  .00166771  00000-0  23401-2 0  9997
2 37734  98.1913 258.7725 0011420  41.6240 318.5880 15.56085810811257

Отслеживайте CZ-2C DEB в реальном времени с AllMySat

Download on the App Store